QSAT-EOS

Last updated on Sun Dec 03 2023 00:02:25 GMT+0000 (Coordinated Universal Time)

1 40301U 14070D 23336.19159647 .03869125 23143-5 97399-3 0 9991 2 40301 97.1188 50.3326 0007137 265.4974 94.5505 16.28978387506242

Satellite not in orbit